KRH646R EGSS-EBBR

Flight info

Callsign KRH646R
Flight time 0h 36m
Altitude 23000
Route CLN M84 KONAN UL607 KOK
Aircraft A332/H-SDE3GHIJ2J3J5M1RVWXY/LB2D1

Departure

Time 2026-05-06 21:20
Airport London Stansted Airport (EGSS)

Arrival

Time 2026-05-06 21:57
Airport Brussels Airport (EBBR)
Time Latitude Longitude Altitude Speed Heading
2026-05-06 21:13 51.87919 0.22015 337 ft 0 kts 339°
2026-05-06 21:15 51.87912 0.22019 337 ft 2 kts 323°
2026-05-06 21:15 51.87899 0.22041 334 ft 3 kts 310°
2026-05-06 21:16 51.87885 0.22069 353 ft 3 kts 311°
2026-05-06 21:16 51.87867 0.22089 354 ft 3 kts 311°
2026-05-06 21:16 51.87862 0.22131 355 ft 5 kts 217°
2026-05-06 21:16 51.87865 0.22135 355 ft 0 kts 214°
2026-05-06 21:18 51.87864 0.22134 355 ft 2 kts 214°
2026-05-06 21:18 51.87844 0.22105 354 ft 6 kts 223°
2026-05-06 21:18 51.87798 0.22035 352 ft 11 kts 223°
2026-05-06 21:18 51.87726 0.21931 335 ft 16 kts 214°
2026-05-06 21:19 51.87607 0.21939 337 ft 18 kts 165°
2026-05-06 21:19 51.87564 0.22057 335 ft 11 kts 58°
2026-05-06 21:19 51.87608 0.22140 353 ft 9 kts 45°
2026-05-06 21:19 51.87686 0.22258 353 ft 36 kts 43°
2026-05-06 21:20 51.88066 0.22827 348 ft 112 kts 43°
2026-05-06 21:20 51.88792 0.23909 412 ft 170 kts 40°
2026-05-06 21:20 51.89748 0.25276 1142 ft 187 kts 40°
2026-05-06 21:20 51.90723 0.26740 2032 ft 200 kts 48°
2026-05-06 21:21 51.91566 0.28735 2489 ft 234 kts 64°
2026-05-06 21:21 51.92130 0.31323 3349 ft 246 kts 79°
2026-05-06 21:21 51.92109 0.34131 4258 ft 255 kts 103°
2026-05-06 21:21 51.91481 0.36860 4805 ft 263 kts 116°
2026-05-06 21:22 51.90539 0.39356 5064 ft 264 kts 125°
2026-05-06 21:22 51.89412 0.41723 5345 ft 265 kts 129°
2026-05-06 21:22 51.88226 0.44009 5739 ft 265 kts 130°
2026-05-06 21:22 51.87035 0.46292 6652 ft 266 kts 130°
2026-05-06 21:23 51.85849 0.48620 7741 ft 271 kts 129°
2026-05-06 21:23 51.84645 0.51061 8657 ft 283 kts 128°
2026-05-06 21:23 51.83422 0.53609 9700 ft 290 kts 127°
2026-05-06 21:23 51.82177 0.56245 10545 ft 302 kts 127°
2026-05-06 21:24 51.80854 0.59066 10946 ft 329 kts 127°
2026-05-06 21:24 51.79421 0.62126 11392 ft 350 kts 127°
2026-05-06 21:24 51.77934 0.65296 12195 ft 359 kts 127°
2026-05-06 21:24 51.76411 0.68534 13120 ft 364 kts 127°
2026-05-06 21:25 51.74867 0.71808 14047 ft 369 kts 127°
2026-05-06 21:25 51.73296 0.75130 14871 ft 374 kts 127°
2026-05-06 21:25 51.71726 0.78446 15686 ft 379 kts 128°
2026-05-06 21:25 51.70116 0.81839 16510 ft 384 kts 128°
2026-05-06 21:26 51.68478 0.85287 17331 ft 389 kts 128°
2026-05-06 21:26 51.66821 0.88772 18148 ft 394 kts 128°
2026-05-06 21:26 51.65142 0.92297 18852 ft 399 kts 128°
2026-05-06 21:26 51.63443 0.95860 19542 ft 403 kts 128°
2026-05-06 21:27 51.61730 0.99449 20220 ft 407 kts 128°
2026-05-06 21:27 51.59996 1.03076 20916 ft 410 kts 128°
2026-05-06 21:27 51.58244 1.06735 21587 ft 414 kts 129°
2026-05-06 21:27 51.56479 1.10416 22247 ft 418 kts 129°
2026-05-06 21:28 51.54696 1.14130 22805 ft 420 kts 129°
2026-05-06 21:28 51.52896 1.17874 23001 ft 429 kts 129°
2026-05-06 21:28 51.51037 1.21731 22999 ft 442 kts 129°
2026-05-06 21:28 51.49166 1.25608 23002 ft 446 kts 129°
2026-05-06 21:29 51.47268 1.29538 23006 ft 446 kts 129°
2026-05-06 21:29 51.45365 1.33476 23007 ft 446 kts 129°
2026-05-06 21:29 51.43466 1.37400 23006 ft 446 kts 129°
2026-05-06 21:29 51.41572 1.41328 23008 ft 446 kts 129°
2026-05-06 21:30 51.39679 1.45262 23005 ft 446 kts 129°
2026-05-06 21:30 51.37788 1.49194 23007 ft 445 kts 129°
2026-05-06 21:30 51.35898 1.53120 23005 ft 445 kts 129°
2026-05-06 21:30 51.34010 1.57034 23005 ft 445 kts 129°
2026-05-06 21:31 51.32115 1.60956 22996 ft 445 kts 129°
2026-05-06 21:31 51.30214 1.64881 22998 ft 445 kts 129°
2026-05-06 21:31 51.28319 1.68787 22999 ft 444 kts 129°
2026-05-06 21:31 51.26423 1.72690 22996 ft 444 kts 129°
2026-05-06 21:32 51.24529 1.76582 23012 ft 444 kts 129°
2026-05-06 21:32 51.20730 1.84372 22992 ft 444 kts 129°
2026-05-06 21:32 51.18832 1.88256 23003 ft 444 kts 129°
2026-05-06 21:33 51.16932 1.92137 23025 ft 444 kts 129°
2026-05-06 21:33 51.15100 1.96091 23029 ft 444 kts 123°
2026-05-06 21:33 51.13710 2.00411 23011 ft 445 kts 111°
2026-05-06 21:33 51.12914 2.05232 23013 ft 446 kts 99°
2026-05-06 21:34 51.12547 2.10080 23010 ft 446 kts 96°
2026-05-06 21:34 51.12269 2.15003 23010 ft 447 kts 95°
2026-05-06 21:34 51.12006 2.19924 23004 ft 447 kts 95°
2026-05-06 21:34 51.11741 2.24856 23004 ft 447 kts 95°
2026-05-06 21:35 51.11473 2.29788 23005 ft 447 kts 95°
2026-05-06 21:35 51.11202 2.34720 23002 ft 447 kts 95°
2026-05-06 21:35 51.10929 2.39646 22998 ft 447 kts 96°
2026-05-06 21:35 51.10652 2.44576 23005 ft 448 kts 96°
2026-05-06 21:36 51.10373 2.49519 22986 ft 448 kts 96°
2026-05-06 21:36 51.10091 2.54465 22987 ft 448 kts 96°
2026-05-06 21:36 51.09808 2.59405 22990 ft 448 kts 96°
2026-05-06 21:36 51.09502 2.64320 22790 ft 444 kts 98°
2026-05-06 21:37 51.09016 2.69157 22173 ft 437 kts 101°
2026-05-06 21:37 51.08464 2.73806 21602 ft 418 kts 101°
2026-05-06 21:37 51.07921 2.78279 20527 ft 408 kts 101°
2026-05-06 21:37 51.07390 2.82632 19550 ft 404 kts 101°
2026-05-06 21:38 51.06860 2.86987 18653 ft 398 kts 101°
2026-05-06 21:38 51.06338 2.91276 17690 ft 392 kts 101°
2026-05-06 21:38 51.05823 2.95504 16710 ft 386 kts 101°
2026-05-06 21:38 51.05315 2.99662 15762 ft 380 kts 101°
2026-05-06 21:39 51.04814 3.03751 14834 ft 374 kts 101°
2026-05-06 21:39 51.04313 3.07834 13924 ft 368 kts 101°
2026-05-06 21:39 51.03831 3.11751 12934 ft 363 kts 101°
2026-05-06 21:39 51.03347 3.15666 11967 ft 358 kts 101°
2026-05-06 21:40 51.02871 3.19511 11057 ft 352 kts 101°
2026-05-06 21:40 51.02399 3.23312 10389 ft 349 kts 100°
2026-05-06 21:40 51.01936 3.27031 9958 ft 335 kts 101°
2026-05-06 21:40 51.01494 3.30565 9478 ft 318 kts 100°
2026-05-06 21:41 51.01071 3.33937 8985 ft 305 kts 100°
2026-05-06 21:41 51.00665 3.37172 8502 ft 294 kts 100°
2026-05-06 21:41 51.00271 3.40300 8090 ft 283 kts 100°
2026-05-06 21:41 50.99889 3.43335 7972 ft 280 kts 100°
2026-05-06 21:42 50.99446 3.46328 7946 ft 283 kts 107°
2026-05-06 21:42 50.98742 3.49269 7504 ft 288 kts 111°
2026-05-06 21:42 50.97951 3.52166 7164 ft 283 kts 112°
2026-05-06 21:42 50.97156 3.54971 6818 ft 278 kts 113°
2026-05-06 21:43 50.96354 3.57762 6440 ft 276 kts 113°
2026-05-06 21:43 50.95556 3.60521 6023 ft 274 kts 113°
2026-05-06 21:43 50.94760 3.63263 5629 ft 272 kts 113°
2026-05-06 21:43 50.93971 3.65978 5235 ft 269 kts 113°
2026-05-06 21:44 50.93199 3.68626 5000 ft 267 kts 113°
2026-05-06 21:44 50.92406 3.71341 4953 ft 268 kts 113°
2026-05-06 21:44 50.91623 3.74024 4969 ft 268 kts 113°
2026-05-06 21:44 50.90842 3.76689 4989 ft 268 kts 112°
2026-05-06 21:45 50.90064 3.79344 4953 ft 269 kts 112°
2026-05-06 21:45 50.89270 3.82050 4528 ft 271 kts 112°
2026-05-06 21:45 50.88483 3.84730 4185 ft 266 kts 112°
2026-05-06 21:45 50.87707 3.87363 3843 ft 262 kts 112°
2026-05-06 21:46 50.86942 3.89959 3490 ft 258 kts 112°
2026-05-06 21:46 50.86188 3.92517 3142 ft 255 kts 111°
2026-05-06 21:46 50.85444 3.95040 3002 ft 253 kts 111°
2026-05-06 21:46 50.84696 3.97565 2992 ft 254 kts 113°
2026-05-06 21:47 50.83618 3.99799 2996 ft 260 kts 135°
2026-05-06 21:47 50.82172 4.01535 2993 ft 262 kts 141°
2026-05-06 21:47 50.80609 4.03045 2990 ft 264 kts 151°
2026-05-06 21:47 50.78951 4.04339 2992 ft 267 kts 152°
2026-05-06 21:48 50.77311 4.05711 2994 ft 267 kts 143°
2026-05-06 21:48 50.75898 4.07603 2994 ft 265 kts 134°
2026-05-06 21:48 50.74603 4.09685 2992 ft 264 kts 127°
2026-05-06 21:48 50.73917 4.11262 2993 ft 262 kts 117°
2026-05-06 21:49 50.73099 4.13808 2982 ft 261 kts 112°
2026-05-06 21:49 50.72352 4.16425 2635 ft 261 kts 108°
2026-05-06 21:49 50.71813 4.19121 2289 ft 255 kts 103°
2026-05-06 21:49 50.71348 4.21791 2033 ft 251 kts 102°
2026-05-06 21:50 50.70987 4.24476 1990 ft 249 kts 93°
2026-05-06 21:50 50.70935 4.27200 1990 ft 249 kts 87°
2026-05-06 21:50 50.70989 4.29917 1989 ft 246 kts 85°
2026-05-06 21:50 50.71072 4.32602 1992 ft 244 kts 84°
2026-05-06 21:51 50.71170 4.35282 1987 ft 245 kts 84°
2026-05-06 21:51 50.71274 4.37885 1993 ft 229 kts 82°
2026-05-06 21:51 50.71650 4.40204 1990 ft 210 kts 57°
2026-05-06 21:51 50.72605 4.41813 2003 ft 194 kts 36°
2026-05-06 21:52 50.73692 4.42877 2023 ft 175 kts 26°
2026-05-06 21:52 50.74775 4.43480 2002 ft 159 kts 16°
2026-05-06 21:52 50.75792 4.43892 2003 ft 141 kts 15°
2026-05-06 21:52 50.76705 4.44254 2003 ft 128 kts 15°
2026-05-06 21:53 50.77543 4.44594 1997 ft 122 kts 16°
2026-05-06 21:53 50.78372 4.44936 2011 ft 130 kts 16°
2026-05-06 21:53 50.79285 4.45315 1981 ft 134 kts 16°
2026-05-06 21:53 50.80161 4.45670 1963 ft 129 kts 18°
2026-05-06 21:54 50.81012 4.46016 1838 ft 124 kts 18°
2026-05-06 21:54 50.81838 4.46351 1667 ft 121 kts 19°
2026-05-06 21:54 50.82654 4.46684 1482 ft 121 kts 19°
2026-05-06 21:54 50.83467 4.47014 1318 ft 121 kts 18°
2026-05-06 21:55 50.84282 4.47347 1136 ft 121 kts 18°
2026-05-06 21:55 50.85087 4.47675 970 ft 121 kts 17°
2026-05-06 21:55 50.85895 4.48004 802 ft 120 kts 15°
2026-05-06 21:55 50.86705 4.48334 643 ft 120 kts 15°
2026-05-06 21:56 50.87509 4.48662 472 ft 119 kts 14°
2026-05-06 21:56 50.88316 4.48974 314 ft 119 kts 13°
2026-05-06 21:56 50.89112 4.49294 183 ft 115 kts 14°
2026-05-06 21:56 50.89721 4.49557 153 ft 62 kts 14°
2026-05-06 21:57 50.89947 4.49652 139 ft 5 kts 14°
2026-05-06 21:57 50.90048 4.49691 136 ft 23 kts 12°
2026-05-06 21:57 50.90235 4.49697 126 ft 31 kts 349°